Probability
0 0 0 0 0 0 0 0 0 0 0 0 0 0 0 0 0 0 0 0 0 0 0 0 0 0 0 0 0 0 0 0 0 0 0 0 0 0 0 0 0 0 0 0
0 0 0 0 0 0 0 0 0 0 0 0 0 0 0 0 0 0 0 0 0 0 0 0 0 0 0 0 0 0 0 0 0 0 0 0 0 0 0 0 0 0 0 0
0 0 0 0 0 1 0 0 0 0 0 0 0 0 0 0 0 0 0 0 0 0 0 0 0 0 0 0 0 0 0 0 0 0 0 0 0 0 0 0 0 0 0 0
0 0 0 0 0 0 0 0 0 0 0 0 0 0 1 0 0 0 0 0 0 0 0 0 0 0 0 0 0 0 0 0 0 0 0 0 0 0 0 0 0 0 0 0
0 0 0 0 0 0 0 0 0 0 0 0 0 0 0 0 0 0 0 0 0 0 0 0 0 0 0 0 0 0 0 0 0 0 0 0 0 0 0 0 0 0 0 0
0 0 0 0 0 0 0 0 0 0 0 0 0 0 0 0 0 0 0 0 0 0 0 0 0 0 0 0 0 0 0 0 0 0 0 0 0 0 0 0 0 0 0 0
0 0 0 0 0 0 0 0 0 0 0 0 0 0 0 0 0 0 0 0 0 0 0 0 0 0 0 0 0 0 0 0 0 0 0 0 0 0 0 0 0 0 0 0
0 0 0 0 0 0 0 0 0 0 0 0 0 0 0 0 0 0 0 0 0 0 0 0 0 0 0 0 0 0 0 0 0 0 0 0 0 0 0 0 0 0 0 0
0 0 0 0 0 0 0 0 0 0 0 0 0 0 0 0 0 0 0 0 0 0 0 0 0 0 0 0 0 0 0 0 0 0 0 0 0 0 0 0 0 0 0 0
0 0 0 0 0 0 0 0 0 0 0 0 0 0 0 0 0 0 0 0 0 0 0 0 0 0 0 0 0 0 0 0 0 0 0 0 0 0 0 0 0 0 0 0
0 0 0 0 0 0 0 0 0 0 0 0 0 0 0 0 0 0 0 0 0 0 0 0 0 0 0 0 0 0 0 0 0 0 0 0 0 0 0 0 0 0 0 0
0 0 0 0 0 0 0 0 0 0 0 0 0 0 0 0 0 0 0 0 0 0 0 0 0 0 0 0 0 0 0 0 0 0 0 0 0 0 0 0 0 0 0 0
0 0 0 0 0 0 0 0 0 0 0 0 0 0 0 0 0 0 0 0 0 0 0 0 0 0 0 0 0 0 0 0 0 0 0 0 0 0 0 0 0 0 0 0
0 0 0 0 0 0 0 0 0 0 0 0 0 0 0 0 0 0 0 0 0 0 0 0 0 0 0 0 0 0 0 0 0 0 0 0 0 0 0 0 0 0 0 0
0 0 0 0 0 0 0 0 0 0 0 0 0 0 0 0 0 0 0 0 0 0 0 0 0 0 0 0 0 0 0 0 0 0 0 0 0 0 0 0 0 0 0 0
0 0 0 0 0 0 0 0 0 0 0 0 0 0 0 0 0 0 0 0 0 0 0 0 0 0 0 0 0 0 0 0 0 0 0 0 0 0 0 0 0 0 0 0
0 0 0 0 0 0 0 0 0 0 0 0 0 0 0 0 0 0 0 0 0 0 0 0 0 0 0 0 0 0 0 0 0 0 0 0 0 0 0 0 0 0 0 0
0 0 0 0 0 0 0 0 0 0 0 0 0 0 0 0 0 0 0 0 0 0 0 0 0 0 0 0 0 0 0 0 0 0 0 0 0 0 0 0 0 0 0 0
0 0 0 0 0 0 0 0 0 0 0 0 0 0 0 0 0 0 0 0 0 0 0 0 0 0 0 0 0 0 0 0 0 0 0 0 0 0 0 0 0 0 0 0
0 0 0 0 0 0 0 0 0 0 0 0 0 0 0 0 0 0 0 0 0 0 0 0 0 0 0 0 0 0 0 0 0 0 0 0 0 0 0 0 0 0 0 0
0 0 0 0 0 0 0 0 0 0 0 0 0 0 0 0 0 0 0 0 0 0 0 0 0 0 0 0 0 0 0 0 0 0 0 0 0 0 0 0 0 0 0 0
0 0 0 0 0 0 0 0 0 0 0 0 0 0 0 0 0 0 0 0 0 0 0 0 0 0 0 0 0 0 0 0 0 0 0 0 0 0 0 0 0 0 0 0
0 0 0 0 0 0 0 0 0 0 0 0 0 0 0 0 0 0 0 0 0 0 0 0 0 0 0 0 0 0 0 0 0 0 0 0 0 0 0 0 0 0 0 0
0 0 0 0 0 0 0 0 0 0 0 0 0 0 0 0 0 0 0 0 0 0 0 0 0 0 0 0 0 0 0 0 0 0 0 0 0 0 0 0 0 0 0 0
0 0 0 0 0 0 0 0 0 0 0 0 0 0 0 0 0 0 0 0 0 0 0 0 0 0 0 0 0 0 0 0 0 0 0 0 0 0 0 0 0 0 0 0
0 0 0 0 0 0 0 0 0 0 0 0 0 0 0 0 0 0 0 0 0 0 0 0 0 0 0 0 0 0 0 0 0 0 0 0 0 0 0 0 0 0 0 0
0 0 0 0 0 0 0 0 0 0 0 0 0 0 0 0 0 0 0 0 0 0 0 0 0 0 0 0 0 0 0 0 0 0 0 0 0 0 0 0 0 0 0 0
Wind_Speed
2 2 2 3 5 4 1 2 4 3 6 8 8 9 9 9 10 11 11 10 9 7 5 5 5 4 3 3 2 3 3 3 3 3 4 5 5 5 6 6 6 6 7 7
4 3 3 7 10 7 5 3 3 5 3 3 6 7 8 9 11 11 10 10 9 8 7 6 5 4 3 3 2 3 3 3 3 3 4 5 5 5 6 6 6 7 7 7
3 5 3 6 7 6 6 5 3 2 3 6 7 7 8 9 11 11 10 9 9 7 6 6 5 4 4 3 2 3 3 3 3 4 4 4 5 5 6 5 6 7 6 7
1 4 3 1 3 5 6 6 5 6 6 6 7 5 4 6 9 9 9 9 8 6 5 4 4 4 4 3 3 3 3 3 3 4 4 4 5 5 5 4 5 5 6 6
2 1 0 1 4 3 2 4 4 7 7 7 7 7 4 4 6 7 8 7 6 6 5 5 4 4 4 4 3 3 3 3 3 3 4 4 4 4 3 4 5 5 5 6
2 1 0 3 6 4 4 3 1 5 6 7 5 3 3 4 7 8 7 6 6 5 6 5 4 5 5 4 3 3 3 3 3 3 4 4 3 3 3 4 4 4 6 6
2 1 1 4 8 3 3 2 2 4 5 5 2 3 6 8 8 8 7 6 6 6 5 4 4 5 5 4 3 3 3 4 4 3 3 3 3 3 3 4 4 5 6 6
2 2 2 6 5 3 2 1 3 4 4 5 7 8 8 8 8 8 7 6 5 5 4 4 5 6 5 4 3 4 4 4 4 3 3 3 4 3 3 4 5 4 5 5
2 3 3 2 1 0 3 4 3 4 6 8 8 8 8 8 7 7 6 6 5 6 5 3 4 5 5 3 4 5 5 5 4 4 4 4 4 3 3 3 3 3 3 4
3 2 1 2 2 3 4 4 4 7 8 8 8 8 8 7 7 6 5 5 5 6 5 3 3 4 4 5 5 5 5 4 4 5 5 5 4 3 3 2 3 3 3 3
2 0 2 3 2 4 5 7 8 7 7 8 9 8 8 7 7 5 5 4 5 6 5 4 4 4 4 5 6 5 4 4 4 4 4 4 4 4 3 1 2 4 2 2
3 3 2 2 1 5 6 6 8 8 7 6 7 8 7 7 6 5 5 5 5 5 5 5 5 4 4 5 5 5 4 3 3 3 3 3 3 4 7 5 6 6 5 4
3 2 3 2 2 4 5 7 8 8 8 7 6 7 7 6 5 6 6 6 6 6 5 5 5 4 4 4 5 5 4 3 2 3 3 2 2 3 2 4 6 6 5 5
3 3 2 2 2 4 7 8 8 8 7 8 6 7 7 6 6 6 6 6 6 6 6 5 5 4 4 4 5 4 4 4 4 3 3 2 2 2 2 2 1 2 2 1
1 3 2 2 4 5 7 8 9 7 7 6 7 7 7 7 7 6 5 6 6 6 5 5 5 4 4 5 5 4 3 2 2 2 2 2 2 2 2 2 1 1 1 2
1 2 3 4 5 6 7 8 8 7 7 7 6 7 7 7 6 6 6 7 7 6 6 5 5 4 4 5 4 3 2 3 3 2 1 1 2 2 2 2 2 2 2 2
4 2 2 3 4 6 7 7 8 8 7 8 8 8 7 7 6 6 6 6 6 6 6 6 5 4 4 5 4 3 2 2 2 1 1 2 2 2 3 3 3 3 3 4
3 4 4 5 6 6 7 7 8 8 8 8 9 8 8 8 7 7 6 5 5 4 5 5 5 5 4 4 3 2 2 2 2 2 2 2 2 2 3 3 4 4 3 3
2 3 3 4 5 6 6 7 8 8 8 9 9 8 7 7 7 7 6 6 6 5 5 5 7 5 4 5 4 3 3 3 2 2 2 3 2 2 2 3 3 4 4 3
1 2 3 3 5 5 6 7 8 8 8 9 9 8 7 7 7 7 6 6 5 5 6 6 6 4 4 4 5 3 3 3 3 3 2 2 3 3 3 3 4 4 4 4
1 2 3 3 4 4 6 8 9 9 8 9 9 9 8 7 7 7 6 4 5 5 6 8 5 4 4 3 3 3 3 3 3 3 3 3 3 3 3 3 3 4 4 4
1 1 3 4 4 4 5 6 8 9 9 8 8 8 8 7 7 6 6 6 6 8 6 5 4 5 6 5 3 3 3 3 3 3 3 3 3 4 4 4 4 4 4 5
1 1 3 4 5 5 5 6 7 8 8 9 9 9 8 7 7 6 5 5 5 9 7 5 7 9 9 4 3 3 4 4 4 4 4 4 4 4 4 5 4 4 4 5
0 1 2 3 4 5 5 6 6 6 8 8 8 9 8 6 5 5 5 8 11 11 7 8 12 12 10 4 3 3 3 4 4 4 4 4 4 4 4 5 5 4 5 5
0 1 2 3 4 4 5 5 5 5 6 5 6 8 7 6 6 6 6 8 11 12 7 9 14 13 8 5 5 5 4 5 5 4 4 5 5 5 5 5 5 5 5 5
1 2 3 4 4 4 4 4 4 4 5 5 5 5 5 5 6 6 6 8 10 11 8 6 8 9 7 6 6 6 5 5 6 6 6 5 6 6 6 6 7 6 6 6
2 1 1 2 2 3 4 5 5 6 6 6 6 6 7 6 6 7 7 6 7 8 7 6 7 7 7 7 7 6 6 5 5 6 6 6 5 6 6 7 6 6 5 6
Wind_Direction
273 288 21 5 346 358 65 183 174 182 163 185 176 161 155 146 141 136 136 136 135 134 130 123 115 111 107 98 82 80 76 66 57 49 47 46 44 41 42 43 45 41 42 35
342 334 34 34 17 21 31 48 98 108 89 134 132 135 146 151 148 145 145 144 140 136 133 133 133 129 114 100 92 87 81 72 66 58 56 52 50 49 48 42 39 43 41 39
321 318 35 33 6 36 44 28 80 103 141 135 130 147 157 154 149 150 149 144 142 141 140 142 139 136 129 120 109 97 87 82 79 70 61 55 60 55 51 45 45 44 37 42
348 15 55 187 6 61 76 40 58 93 112 118 126 116 109 134 140 144 145 143 142 140 139 138 132 130 127 118 108 102 92 86 85 78 70 62 62 56 51 48 49 45 38 40
73 39 352 16 350 339 110 49 58 100 99 101 109 89 71 98 126 137 139 140 141 142 136 133 133 132 120 106 98 92 92 97 96 92 81 72 67 58 53 58 53 48 40 41
82 71 352 311 315 315 109 68 48 117 127 135 124 126 168 137 121 120 123 128 132 129 123 127 133 126 119 115 105 98 98 100 105 96 90 82 74 66 59 66 64 60 49 38
104 121 319 310 317 13 90 235 213 148 150 149 145 157 143 131 123 126 128 130 127 126 129 139 137 127 124 120 122 123 106 95 92 85 87 84 71 62 68 66 64 59 52 37
85 88 282 321 8 53 200 201 127 123 125 113 109 112 121 127 127 128 125 127 125 126 128 133 134 128 126 133 138 118 102 94 87 73 70 79 78 66 66 76 71 58 53 40
144 191 241 346 69 248 132 113 114 123 128 125 122 126 126 128 131 133 134 132 126 126 120 116 128 131 132 144 133 115 103 97 86 69 60 63 77 80 71 74 80 65 61 54
70 48 47 44 60 67 89 111 122 131 133 128 126 132 132 133 132 132 133 133 131 127 124 121 124 129 138 136 125 117 112 104 94 81 65 52 51 63 78 81 96 92 83 72
73 97 37 28 69 97 92 104 112 119 125 129 129 133 135 136 138 137 135 134 134 136 139 142 132 128 132 129 121 116 112 107 100 91 89 72 59 47 65 55 137 133 128 120
204 224 173 225 175 126 122 125 128 126 120 122 132 136 135 139 141 140 139 133 131 133 134 137 134 133 133 131 128 124 116 114 111 106 99 95 91 58 37 51 70 97 122 127
179 179 167 177 125 119 130 134 134 132 132 128 131 135 135 135 138 139 139 139 143 144 141 139 135 135 142 139 132 133 137 141 135 132 131 131 123 116 85 26 46 68 92 105
139 118 94 104 127 117 126 130 128 125 129 132 135 131 130 129 136 141 149 150 146 140 140 140 138 146 152 138 132 137 143 151 150 159 163 169 169 160 148 138 88 2 3 31
125 124 148 135 114 112 122 127 125 125 128 129 134 136 138 140 147 152 150 142 137 139 144 144 141 154 155 141 134 138 139 147 154 164 170 176 175 172 170 164 163 204 314 322
121 92 104 117 129 133 133 136 138 143 142 141 144 148 148 147 147 146 147 145 145 155 160 155 160 172 158 144 137 135 146 162 155 155 172 185 181 174 182 189 194 206 229 248
129 135 141 150 154 153 153 155 155 153 150 149 154 151 143 138 138 145 154 157 157 160 162 161 173 172 155 151 156 165 169 178 174 156 187 193 183 184 193 195 203 213 230 235
173 184 181 173 168 160 162 160 157 154 155 156 151 148 148 151 157 163 164 155 146 150 167 172 171 163 165 169 173 181 185 195 202 209 205 211 213 205 195 199 208 215 234 244
143 155 166 170 165 159 159 162 160 158 156 152 152 157 160 161 161 162 156 152 155 167 192 188 175 167 178 194 186 189 195 204 215 220 215 217 221 223 208 205 212 215 217 222
104 140 142 152 157 154 156 160 156 155 158 155 152 154 157 164 162 160 159 165 182 186 185 179 174 178 191 198 186 187 202 210 213 219 222 219 225 235 226 217 215 212 215 217
102 132 147 146 155 156 156 157 155 159 161 158 159 164 168 171 167 160 161 181 210 189 176 177 177 184 194 202 199 200 209 211 205 209 215 218 223 234 235 229 222 215 216 221
140 153 160 148 145 151 156 154 155 158 158 163 166 165 164 170 172 171 179 188 192 182 174 180 185 194 200 203 201 207 215 216 213 210 215 220 222 230 235 233 225 221 219 221
200 166 157 158 159 159 157 155 159 162 166 170 172 172 173 178 175 173 195 206 184 183 181 189 196 200 206 203 208 215 215 215 216 216 222 224 222 222 227 234 232 227 222 223
319 160 167 160 143 144 161 177 173 172 175 176 178 177 173 176 188 195 189 188 188 187 192 199 201 204 205 205 213 221 225 225 225 227 230 232 231 230 230 231 232 230 226 225
237 160 155 152 158 176 181 175 169 174 175 180 185 185 182 181 185 194 188 188 190 189 196 201 203 206 205 208 215 224 229 230 231 227 225 228 233 235 235 232 230 229 227 227
232 199 197 198 194 189 179 170 173 183 181 186 195 195 193 192 190 184 184 192 191 193 195 197 200 204 208 213 220 225 229 238 243 237 230 227 231 233 232 230 230 228 226 227
256 231 214 217 217 195 182 179 183 192 192 192 198 199 197 196 193 192 191 191 191 195 198 197 197 200 207 215 223 228 231 233 234 235 234 231 229 229 229 228 226 225 225 226